Погода Радужный

Погода Радужный : погода сейчас, прогноз погоды и архив. Всё, что Вы хотите узнать о погоде Радужный!

Поиск расширенной информации на нашем сайте:

Другие новости

Новости СМИ2

Главная страница сайта

Новости сайта

03.07.2017

Напоминаем, что на нашем специализированном сайте Метеоцентр.Азия вы можете получить высокодетализированные автоматические прогнозы погоды по пунктам России, СНГ и мира в авиационном формате (включающие направление и скорость ветра, видимость, явления погоды, количество и форму облачности, нижнюю и верхнюю границу облачности).


Погода Радужный - сегодня

Время (UTC), дата Ветер
(°,м/с) 
Видим.   Явления Облачность Т
(°С)
Тd
(°С)
f(%) Тe
(°С)
Pmin
(гПа)
dP
(гПа)
Po
(мм)
O2
(г/м3)
Тmin Tmax R s Состояние
почвы
03 15.08.17 230 (ЮЗ) 10 км    9/3 600 м средняя, верхняя 
[Sc|Ac trans|Ci fib]
+15.3 +8.1 62 +15  1019.1  -0.9  758  288  +10.7         
06 15.08.17 230 (ЮЗ) 10 км    10/4 600 м средняя 
[Sc|Ac und]
+16.7 +8.9 60 +17  1018.2  -0.7  758  286           
09 15.08.17 230 (ЮЗ) 10 км    10/4 600 м средняя 
[Sc|Ac und]
+18.2 +10.1 59 +20  1017.7  -0.5  757  284           
12 15.08.17 230 (ЮЗ) 10 км    8/3 600 м средняя 
[Sc|Ac lent]
+19 +11.3 61 +23  1016.7  -1  757  283           
18 15.08.17 200 (Ю) 10 км    8/0 средняя, верхняя 
[Ac trans|Ci fib]
+13.7 +12 89 +18  1015.9  -0.7  756  288           
21 15.08.17 200 (Ю) 10 км    10/0 средняя, верхняя 
[Ac trans|Ci fib]
+13.8 +12.3 91 +18  1014.7  -1.1  755  287           
00 16.08.17 190 (Ю) 10 км    8/0 средняя, верхняя 
[Ac trans|Ci fib]
+13.4 +12.2 92 +18  1013.8  -0.9  754  287           
03 16.08.17 200 (Ю) 10 км    8/0 средняя, верхняя 
[Ac trans|Ci fib]
+15.9 +13.2 84 +22  1013.3  -0.4  754  284  +13.2         
06 16.08.17 220 (ЮЗ) 10 км    3/0 средняя, верхняя 
[Ac trans|Ci fib]
+22.5 +12.3 52 +27  1011.9  -1.2  753  278           
09 16.08.17 260 (З) 10 км    6/3 600 м средняя, верхняя 
[Cu hum|Ac trans|Ci fib]
+24 +10.6 43 +26  1011.4  -0.5  753  277           
12 16.08.17 230 (ЮЗ) 10 км    8/3 600 м средняя, верхняя 
[Cu hum|Ac trans|Ci fib]
+22.3 +11.2 49 +25  1011.3  -0.2  753  278           
15 16.08.17 330 (СЗ) 10 км    8/3 600 м средняя, верхняя 
[Sc|Ac trans|Ci fib]
+17.3 +13.7 79 +24  1012.3  0.9  753  283    +24.7       
18 16.08.17 340 (С) 4000 м  слаб. ливневой дождь  10/8 360 м кучево-дожд., средняя 
[Cb cap|Ac und]
+12.8 +11.7 93 +16  1013.7  1.3  754  288           
00 17.08.17 330 (СЗ) 10 км    4/3 600 м средняя, верхняя 
[Sc|Ac trans|Ci fib]
+9.3 +8.1 92 +10  1016.4  1.3  756  293           
03 17.08.17 330 (СЗ) 10 км    9/9 360 м кучево-дожд. 
[Cb cap]
+11.6 +8.3 80 +12  1017.2  0.8  757  291  +9.3       
06 17.08.17 340 (С) 10 км    3/3 600 м 
[Cu med, cong]
+15.4 +7.8 60 +16  1017.6  0.5  757  287           
09 17.08.17 010 (С) 10 км    4/4 600 м 
[Cu med, cong]
+17.5 +6.1 47 +18  1017.9  0.3  757  286           
12 17.08.17 360 (С) 10 км    6/3 600 м средняя 
[Cu med, cong|Ac trans]
+16.6 +7.3 54 +17  1018.5  0.6  758  287           
15 17.08.17 330 (СЗ) 10 км    3/0 средняя, верхняя 
[Ac trans|Ci fib]
+10.9 +8.7 86 +12  1019.6  759  292    +18.4       
18 17.08.17 тихо ()   10 км    ясно 
+7.8 +7.1 95 +8  1020.7  759  296           
21 17.08.17 310 (СЗ) 10 км    ясно 
+6.1 +5.5 96 +7  1021.3  0.5  760  299           
00 18.08.17 тихо ()   10 км    3/0 верхняя 
[Cc]
+5.8 +5.3 97 +6  1022  0.7  760  299           
03 18.08.17 040 (СВ) 10 км    3/0 верхняя 
[Ci sp]
+14.4 +8.8 69 +16  1022.4  0.6  761  290  +5.7         
06 18.08.17 010 (С) 10 км    6/6 570 м кучево-дожд. 
[Cb cap]
+16.3 +5.1 47 +18  1022  -0.3  760  288           
09 18.08.17 210 (ЮЗ) 10 км  в посл. час ливневой снег  8/4 600 м кучево-дожд., верхняя 
[Cb cap|Ci fib]
+14.2 +9.4 73 +15  1022  -0.1  760  290           
Время (UTC), дата Ветер
(°,м/с) 
Видим.   Явления Облачность Т
(°С)
Тd
(°С)
f(%) Тe
(°С)
Pmin
(гПа)
dP
(гПа)
Po
(мм)
O2
(г/м3)
Тmin Tmax R s Состояние
почвы

Для получения пояснительной информации подведите курсор к названию столбца.

ПОГОДА Радужный - архив

Всё, что Вы хотите узнать о погоде Радужный - удобно и подробно!

Выберите нужную дату (начиная с 1 января 2015* года) и нажмите кнопку "Найти".
Будут отображены архивные сводки погоды по пункту Радужный, начиная с указанной даты.


Отображать данные в формате CSV (для использования в таблицах Excel)


Внимание! Наш архив погоды предназначен исключительно для личного некоммерческого использования в познавательных целях. Если Вам необходимы официальные справки о состоянии погоды (для производственных, юридических, коммерческих и т.п. целей), обращайтесь в органы Росгидромета.

*Примечание: данная дата относится к архиву по метеостанциям СССР (Россия, СНГ, Балтия).
Архив по метеостанциям Зарубежной Европы и Азии (кроме Китая) хранится 10 дней, по другим регионам земного шара (Китай, Африка, Америка, Австралия, Океания) - 1 день.

Радужный - район местоположения метеостанции


Название, широта, долгота, высота метеостанции:
Радужный 62.1°ш. 77.3°д. 73 м над ур. моря [Российская Федерация]

Дополнительная информация

В oтличие oт бoльшинства пoгoдных сайтoв мы публикуем пoдрoбную метеoинфoрмацию в детальнoм прoфессиoнальнoм фoрмате.

Характеристики температуры и влажнoсти вoздуха измеряются на высoте 2 м в тени вдали oт зданий и деревьев.
Скoрoсть ветра измеряется на высoте 10 м (на урoвне рoста челoвека скoрoсть ветра ниже в 1.5-2 раза). Если метеoстанция нахoдится в гoрoде или в лесу, тo скoрoсть ветра занижена на 2-4 м/с пo сравнению с oткрытым местoм. Скoрoсть ветра над акватoриями крупных рек и oзёр, а также на вершинах хoлмoв на 2-5 м/с выше, чем в oбычных услoвиях.
Атмoсфернoе давление в разных тoчках местнoсти мoжет значительнo oтличаться oт давления на метеoстанции, в зависимoсти oт услoвий рельефа (при пoдъёме на 10 м давление пoнижается примернo на 1 мм рт.ст.).